FW5768 Weather Reports


Display with metric or nautical units.
time (UTC)temp
F
wind
direction
speed
MPH
gust
MPH
rain 1hr
in
rain 24hr
in
rain mn
in
humidity
%
barometer
mb
20260505224304 52 66 1.0 2.0 0.00 0.00 0.00 55 1012.7
20260505223804 52 49 0.0 2.0 0.00 0.00 0.00 55 1012.7
20260505223305 51 42 0.0 0.0 0.00 0.00 0.00 55 1012.5
20260505222306 51 90 0.0 0.0 0.00 0.00 0.00 57 1013.0
20260505221804 51 91 0.0 0.0 0.00 0.00 0.00 57 1012.9
20260505221304 51 357 0.0 0.0 0.00 0.00 0.00 57 1012.8
20260505220804 51 322 0.0 1.0 0.00 0.00 0.00 56 1012.7
20260505220305 50 322 0.0 1.0 0.00 0.00 0.00 56 1012.7
20260505215805 51 275 0.0 0.0 0.00 0.00 0.00 57 1012.8
20260505215305 51 272 0.0 1.0 0.00 0.00 0.00 56 1012.8
20260505214805 51 294 1.0 3.0 0.00 0.00 0.00 55 1012.7
20260505214304 51 344 0.0 1.0 0.00 0.00 0.00 55 1012.7
20260505212804 52 331 1.0 2.0 0.00 0.00 0.00 53 1012.6
20260505212305 53 333 1.0 2.0 0.00 0.00 0.00 53 1012.5
20260505211805 53 355 2.0 3.0 0.00 0.00 0.00 52 1012.3
20260505211305 53 338 2.0 3.0 0.00 0.00 0.00 52 1012.7
20260505210804 53 319 1.0 2.0 0.00 0.00 0.00 52 1012.4
20260505210305 53 317 2.0 3.0 0.00 0.00 0.00 51 1012.5
20260505205804 53 318 2.0 3.0 0.00 0.00 0.00 51 1012.5
20260505205305 53 328 1.0 2.0 0.00 0.00 0.00 50 1012.5
20260505204804 54 334 1.0 2.0 0.00 0.00 0.00 49 1012.6
20260505204304 54 2 1.0 2.0 0.00 0.00 0.00 48 1012.6
20260505203805 54 29 0.0 2.0 0.00 0.00 0.00 48 1012.6
20260505203304 54 9 1.0 2.0 0.00 0.00 0.00 47 1012.6
20260505202805 54 19 1.0 2.0 0.00 0.00 0.00 47 1012.7
20260505202306 55 11 1.0 3.0 0.00 0.00 0.00 46 1012.6
20260505201804 54 5 2.0 2.0 0.00 0.00 0.00 46 1012.4
20260505200805 54 329 1.0 3.0 0.00 0.00 0.00 50 1012.4
20260505200304 54 322 2.0 3.0 0.00 0.00 0.00 50 1012.6
20260505195804 54 330 2.0 3.0 0.00 0.00 0.00 50 1012.4
20260505194805 55 322 1.0 2.0 0.00 0.00 0.00 50 1012.1
20260505194304 55 310 1.0 1.0 0.00 0.00 0.00 49 1012.1
20260505193304 56 300 0.0 1.0 0.00 0.00 0.00 49 1011.8
20260505192804 56 320 1.0 1.0 0.00 0.00 0.00 49 1012.0
20260505192305 56 317 1.0 2.0 0.00 0.00 0.00 48 1011.8
20260505191805 57 308 1.0 2.0 0.00 0.00 0.00 46 1011.7
20260505191304 57 285 1.0 5.0 0.00 0.00 0.00 46 1011.8
20260505190805 57 324 1.0 3.0 0.00 0.00 0.00 47 1011.6
20260505190304 58 318 1.0 2.0 0.00 0.00 0.00 47 1011.7
20260505185805 58 315 1.0 2.0 0.00 0.00 0.00 46 1011.6
20260505185305 58 288 1.0 3.0 0.00 0.00 0.00 45 1011.7
20260505184804 59 310 1.0 3.0 0.00 0.00 0.00 44 1011.4
20260505183804 60 300 3.0 7.0 0.00 0.00 0.00 41 1011.4
20260505183305 61 284 3.0 9.0 0.00 0.00 0.00 40 1011.6
20260505182804 61 266 5.0 8.0 0.00 0.00 0.00 39 1011.5
20260505181304 62 343 1.0 3.0 0.00 0.00 0.00 38 1011.2
20260505180304 63 252 3.0 7.0 0.00 0.00 0.00 36 1011.0
20260505175804 64 275 3.0 12.0 0.00 0.00 0.00 36 1011.1
20260505175305 64 273 4.0 8.0 0.00 0.00 0.00 36 1010.8
20260505174804 64 304 4.0 10.0 0.00 0.00 0.00 34 1010.8
20260505173804 64 273 6.0 10.0 0.00 0.00 0.00 34 1010.8
20260505173304 66 273 6.0 12.0 0.00 0.00 0.00 33 1010.4
20260505172804 66 264 5.0 9.0 0.00 0.00 0.00 33 1010.7
20260505172306 65 285 2.0 6.0 0.00 0.00 0.00 34 1010.8
20260505171804 63 257 2.0 6.0 0.00 0.00 0.00 35 1010.8
20260505171304 64 267 3.0 10.0 0.00 0.00 0.00 34 1010.9
20260505170805 64 263 5.0 12.0 0.00 0.00 0.00 34 1010.9
20260505170305 65 272 5.0 9.0 0.00 0.00 0.00 34 1011.0
20260505165804 65 272 6.0 12.0 0.00 0.00 0.00 32 1010.6
20260505165306 67 264 5.0 10.0 0.00 0.00 0.00 31 1010.5
20260505164804 67 308 4.0 10.0 0.00 0.00 0.00 32 1010.7
20260505164305 67 263 2.0 10.0 0.00 0.00 0.00 32 1010.6
20260505163805 67 271 5.0 9.0 0.00 0.00 0.00 33 1010.7
20260505163304 68 231 5.0 12.0 0.00 0.00 0.00 32 1010.4
20260505162804 67 305 2.0 7.0 0.00 0.00 0.00 33 1010.6
20260505162306 66 265 5.0 10.0 0.00 0.00 0.00 34 1010.8
20260505161305 65 242 4.0 9.0 0.00 0.00 0.00 34 1010.9
20260505160805 65 278 2.0 10.0 0.00 0.00 0.00 34 1010.8
20260505152805 66 252 4.0 8.0 0.00 0.00 0.00 35 1010.9
20260505152305 63 276 3.0 7.0 0.00 0.00 0.00 38 1011.1
20260505151805 63 264 5.0 12.0 0.00 0.00 0.00 37 1011.1
20260505150805 65 267 5.0 12.0 0.00 0.00 0.00 36 1010.9
20260505150304 65 244 3.0 8.0 0.00 0.00 0.00 37 1010.9
20260505140304 64 274 5.0 10.0 0.00 0.00 0.00 39 1011.7
20260505124804 63 285 6.0 12.0 0.00 0.00 0.00 39 1012.3
20260505123804 62 275 5.0 12.0 0.00 0.00 0.00 43 1012.4
20260505123305 63 300 6.0 12.0 0.00 0.00 0.00 42 1012.3
20260505122305 65 226 6.0 12.0 0.00 0.00 0.00 39 1012.2
20260505121804 64 226 7.0 13.0 0.00 0.00 0.00 41 1012.3
20260505121304 63 295 6.0 14.0 0.00 0.00 0.00 41 1012.7
20260505120804 64 284 6.0 13.0 0.00 0.00 0.00 40 1012.6
20260505120304 63 251 6.0 13.0 0.00 0.00 0.00 43 1012.7
20260505115305 64 229 8.0 17.0 0.00 0.00 0.00 42 1012.5
20260505114804 63 227 4.0 12.0 0.00 0.00 0.00 44 1012.6
20260505114304 63 245 7.0 15.0 0.00 0.00 0.00 46 1012.8
20260505113804 63 240 9.0 15.0 0.00 0.00 0.00 44 1012.8
20260505112804 62 220 5.0 10.0 0.00 0.00 0.00 42 1013.3
20260505112305 62 269 5.0 13.0 0.00 0.00 0.00 44 1013.1
20260505111805 60 270 4.0 10.0 0.00 0.00 0.00 46 1013.4
20260505111305 60 251 8.0 13.0 0.00 0.00 0.00 46 1013.1
20260505110804 61 226 5.0 13.0 0.00 0.00 0.00 42 1013.2
20260505110304 63 273 5.0 10.0 0.00 0.00 0.00 43 1013.0
20260505101804 60 249 6.0 13.0 0.00 0.00 0.00 44 1013.3
20260505101304 60 262 6.0 14.0 0.00 0.00 0.00 44 1013.3
20260505100804 62 260 5.0 14.0 0.00 0.00 0.00 44 1013.0
20260505100304 62 279 6.0 16.0 0.00 0.00 0.00 43 1013.1
20260505095804 61 273 5.0 14.0 0.00 0.00 0.00 42 1013.3
20260505095305 60 269 5.0 14.0 0.00 0.00 0.00 46 1013.3
20260505094305 61 243 6.0 15.0 0.00 0.00 0.00 47 1013.0
20260505093805 60 243 7.0 15.0 0.00 0.00 0.00 47 1013.4
20260505093304 59 275 6.0 12.0 0.00 0.00 0.00 47 1013.3
20260505092804 61 252 6.0 16.0 0.00 0.00 0.00 42 1013.1
20260505092305 61 242 2.0 8.0 0.00 0.00 0.00 50 1013.1
20260505091804 61 251 3.0 10.0 0.00 0.00 0.00 50 1013.2
20260505091304 61 232 3.0 8.0 0.00 0.00 0.00 50 1013.1
20260505090805 61 208 2.0 7.0 0.00 0.00 0.00 51 1013.0
20260505090304 61 246 1.0 5.0 0.00 0.00 0.00 53 1013.2
20260505085805 59 234 1.0 6.0 0.00 0.00 0.00 55 1013.3
20260505085305 59 279 2.0 7.0 0.00 0.00 0.00 57 1013.3
20260505084805 58 287 2.0 5.0 0.00 0.00 0.00 60 1013.4
20260505084305 57 221 3.0 7.0 0.00 0.00 0.00 62 1013.4
20260505083805 57 236 3.0 6.0 0.00 0.00 0.00 60 1013.3
20260505083304 57 233 3.0 8.0 0.00 0.00 0.00 59 1013.2
20260505082804 57 254 2.0 6.0 0.00 0.00 0.00 62 1013.2
20260505082305 57 237 5.0 8.0 0.00 0.00 0.00 62 1013.3
20260505081304 57 258 2.0 7.0 0.00 0.00 0.00 62 1013.6
20260505080804 56 246 2.0 5.0 0.00 0.00 0.00 67 1013.5
20260505080304 56 228 2.0 7.0 0.00 0.00 0.00 66 1013.6
20260505075804 56 260 1.0 3.0 0.00 0.00 0.00 64 1013.6
20260505075304 56 231 1.0 5.0 0.00 0.00 0.00 65 1013.2
20260505074804 55 229 1.0 2.0 0.00 0.00 0.00 64 1013.5
20260505074305 55 267 1.0 3.0 0.00 0.00 0.00 67 1013.4
20260505073804 54 227 3.0 5.0 0.00 0.00 0.00 67 1013.4
20260505073304 54 229 1.0 3.0 0.00 0.00 0.00 66 1013.4
20260505072804 54 16 1.0 1.0 0.00 0.00 0.00 67 1013.3
20260505071804 52 248 1.0 3.0 0.00 0.00 0.00 71 1013.6
20260505071305 52 276 1.0 3.0 0.00 0.00 0.00 72 1013.4
20260505070805 52 248 1.0 3.0 0.00 0.00 0.00 72 1013.4
20260505070304 52 259 1.0 3.0 0.00 0.00 0.00 74 1013.5
20260505065805 52 216 2.0 3.0 0.00 0.00 0.00 73 1013.5
20260505065304 51 274 0.0 1.0 0.00 0.00 0.00 75 1013.5
20260505064804 51 249 1.0 2.0 0.00 0.00 0.00 75 1013.2
20260505064304 50 224 2.0 5.0 0.00 0.00 0.00 77 1013.2
20260505063806 50 241 2.0 5.0 0.00 0.00 0.00 77 1013.1
20260505062805 50 234 2.0 5.0 0.00 0.00 0.00 79 1013.3
20260505062305 50 257 1.0 2.0 0.00 0.00 0.00 78 1012.9
20260505061804 49 237 0.0 2.0 0.00 0.00 0.00 79 1013.0
20260505061304 49 229 1.0 2.0 0.00 0.00 0.00 79 1012.9
20260505060804 49 215 2.0 3.0 0.00 0.00 0.00 79 1012.7
20260505060305 49 228 2.0 2.0 0.00 0.00 0.00 76 1012.9
20260505055804 49 292 0.0 1.0 0.00 0.00 0.00 77 1012.9
20260505055304 49 230 1.0 3.0 0.00 0.00 0.00 78 1012.9
20260505054304 49 234 0.0 0.0 0.00 0.00 0.00 75 1012.8
20260505053805 49 173 0.0 0.0 0.00 0.00 0.00 74 1012.7
20260505053304 49 187 0.0 1.0 0.00 0.00 0.00 75 1012.9
20260505052805 49 176 0.0 1.0 0.00 0.00 0.00 76 1012.6
20260505052304 49 197 1.0 1.0 0.00 0.00 0.00 76 1012.7
20260505051804 49 195 0.0 1.0 0.00 0.00 0.00 77 1012.8
20260505051304 49 191 0.0 2.0 0.00 0.00 0.00 76 1012.5
20260505050804 49 197 0.0 1.0 0.00 0.00 0.00 76 1012.6
20260505050304 48 216 0.0 1.0 0.00 0.00 0.00 77 1012.6
20260505040804 49 194 1.0 2.0 0.00 0.00 0.00 75 1012.7
20260505040304 49 193 0.0 1.0 0.00 0.00 0.00 75 1012.6
20260505035804 49 148 1.0 2.0 0.00 0.00 0.00 74 1012.5
20260505035304 49 197 0.0 0.0 0.00 0.00 0.00 72 1012.7
20260505034804 49 206 0.0 0.0 0.00 0.00 0.00 71 1012.8
20260505034304 49 128 0.0 0.0 0.00 0.00 0.00 72 1012.6
20260505033804 49 116 0.0 0.0 0.00 0.00 0.00 73 1012.5
20260505032804 49 130 0.0 0.0 0.00 0.00 0.00 71 1012.6
20260505032305 49 223 0.0 0.0 0.00 0.00 0.00 72 1012.7
20260505031804 49 135 0.0 0.0 0.00 0.00 0.00 72 1012.7
20260505031304 49 214 0.0 0.0 0.00 0.00 0.00 71 1012.6
20260505030804 49 221 0.0 0.0 0.00 0.00 0.00 70 1012.6
20260505030304 49 157 0.0 0.0 0.00 0.00 0.00 72 1012.6
20260505025804 49 153 0.0 0.0 0.00 0.00 0.00 73 1012.7
20260505025305 49 203 0.0 0.0 0.00 0.00 0.00 73 1012.8
20260505024805 49 217 0.0 0.0 0.00 0.00 0.00 72 1012.6
20260505024304 48 216 0.0 0.0 0.00 0.00 0.00 74 1012.9
20260505023804 49 228 0.0 0.0 0.00 0.00 0.00 74 1012.7
20260505023304 49 211 1.0 1.0 0.00 0.00 0.00 73 1012.6
20260505022805 49 209 0.0 1.0 0.00 0.00 0.00 73 1012.7
20260505022304 48 172 0.0 1.0 0.00 0.00 0.00 73 1012.9
20260505021804 48 199 1.0 2.0 0.00 0.00 0.00 73 1013.0
20260505021305 49 189 1.0 2.0 0.00 0.00 0.00 72 1012.7
20260505020804 49 197 1.0 2.0 0.00 0.00 0.00 70 1012.8
20260505020304 49 197 0.0 1.0 0.00 0.00 0.00 70 1012.8
20260505015804 49 189 0.0 1.0 0.00 0.00 0.00 69 1012.9
20260505015305 49 146 1.0 2.0 0.00 0.00 0.00 69 1012.8
20260505014804 49 141 0.0 0.0 0.00 0.00 0.00 69 1013.0
20260505014304 49 149 0.0 1.0 0.00 0.00 0.00 69 1012.9
20260505013804 49 176 0.0 1.0 0.00 0.00 0.00 68 1012.9
20260505013304 49 151 0.0 1.0 0.00 0.00 0.00 67 1013.1
20260505012305 49 149 0.0 0.0 0.00 0.00 0.00 67 1013.0
20260505011804 49 182 1.0 1.0 0.00 0.00 0.00 68 1013.2
20260505011305 49 157 1.0 2.0 0.00 0.00 0.00 69 1013.3
20260505010805 49 155 1.0 2.0 0.00 0.00 0.00 68 1013.3
20260505010304 49 159 2.0 2.0 0.00 0.00 0.00 67 1013.2
20260505005804 49 141 2.0 2.0 0.00 0.00 0.00 66 1013.3
20260505005305 49 144 1.0 2.0 0.00 0.00 0.00 66 1013.2
20260505004304 49 139 2.0 2.0 0.00 0.00 0.00 65 1013.2
20260505003804 50 151 1.0 2.0 0.00 0.00 0.00 64 1013.1
20260505002305 50 172 0.0 0.0 0.00 0.00 0.00 64 1013.2
20260505001304 49 150 0.0 1.0 0.00 0.00 0.00 64 1013.2
20260505000804 49 135 1.0 2.0 0.00 0.00 0.00 64 1013.5
20260505000304 49 139 1.0 3.0 0.00 0.00 0.00 64 1013.5
20260504235804 49 146 0.0 1.0 0.00 0.00 0.00 64 1013.5
20260504235305 49 120 0.0 0.0 0.00 0.00 0.00 65 1013.5
20260504234805 48 179 0.0 0.0 0.00 0.00 0.00 66 1013.6
20260504234304 49 239 0.0 0.0 0.00 0.00 0.00 66 1013.7
20260504233304 49 344 1.0 2.0 0.00 0.00 0.00 65 1013.9
20260504232805 49 273 0.0 3.0 0.00 0.00 0.00 65 1013.8
20260504232304 49 190 0.0 2.0 0.00 0.00 0.00 64 1013.8
20260504231304 49 203 1.0 5.0 0.00 0.00 0.00 64 1013.8
20260504230804 49 142 1.0 5.0 0.00 0.00 0.00 65 1013.6
20260504230304 50 157 1.0 2.0 0.00 0.00 0.00 65 1013.5
20260504225804 50 173 1.0 2.0 0.00 0.00 0.00 64 1013.6
20260504224804 49 215 1.0 3.0 0.00 0.00 0.00 67 1013.7